User: anonymous   Login
Location: Dayton
(39.7590°N, 84.1920°W)
Time: 18:11:11
(UTC-04:00)
Language:

Cosmos 1939 Rocket - Orbit

View from above orbital plane
View from above orbital plane
View from above satellite
View from above satellite

Ground track
Ground track

The orbit data is extracted from the following two-line orbital elements,

1 19046U 88032B   16272.13951077  .00000664  00000-0  54327-4 0  9993
2 19046  97.5740 320.0346 0041828 140.9470 219.4788 15.02040808533301
Epoch (UTC): 28 September 2016 03:20:53
Eccentricity: 0.0041828
inclination: 97.5740°
perigee height: 531 km
apogee height: 589 km
right ascension of ascending node: 320.0346°
argument of perigee: 140.9470°
revolutions per day: 15.02040808
mean anomaly at epoch: 219.4788°
orbit number at epoch: 53330

The dashed part of the orbit path shows where the satellite is in the earth's shadow,  

DLR